H1 CPF 2 NER 2025 11 29 9 333 01 glonass142 H2 2001801 9142 45358 2025 11 29 0 0 0 2025 12 2 23 45 0 900 1 1 0 0 0 1 H9 10 0 61008 0.00000 0 12875266.996 6815085.450 20957585.769 10 0 61008 900.00000 0 13810377.293 9120245.607 19426564.602 10 0 61008 1800.00000 0 14822256.742 11159573.239 17518794.435 10 0 61008 2700.00000 0 15858082.438 12895533.488 15271136.578 10 0 61008 3600.00000 0 16860487.320 14302386.272 12727072.323 10 0 61008 4500.00000 0 17770035.483 15367018.890 9935872.841 10 0 61008 5400.00000 0 18527806.916 16089257.502 6951653.608 10 0 61008 6300.00000 0 19077983.016 16481644.170 3832330.695 10 0 61008 7200.00000 0 19370323.516 16568688.500 638498.656 10 0 61008 8100.00000 0 19362429.404 16385625.150 -2567748.308 10 0 61008 9000.00000 0 19021694.955 15976729.477 -5724028.718 10 0 61008 9900.00000 0 18326864.709 15393262.631 -8768895.386 10 0 61008 10800.00000 0 17269127.758 14691133.383 -11643041.460 10 0 61008 11700.00000 0 15852701.216 13928376.311 -14290466.335 10 0 61008 12600.00000 0 14094876.434 13162553.994 -16659577.511 10 0 61008 13500.00000 0 12025524.434 12448194.213 -18704205.852 10 0 61008 14400.00000 0 9686080.062 11834371.661 -20384513.567 10 0 61008 15300.00000 0 7128046.614 11362537.433 -21667776.511 10 0 61008 16200.00000 0 4411083.049 11064688.877 -22529025.211 10 0 61008 17100.00000 0 1600753.497 10961957.647 -22951531.974 10 0 61008 18000.00000 0 -1233966.910 11063675.861 -22927134.710 10 0 61008 18900.00000 0 -4023325.833 11366959.722 -22456391.446 10 0 61008 19800.00000 0 -6699457.330 11856827.863 -21548562.971 10 0 61008 20700.00000 0 -9198964.403 12506848.884 -20221424.425 10 0 61008 21600.00000 0 -11465313.261 13280290.062 -18500910.093 10 0 61008 22500.00000 0 -13450940.219 14131718.009 -16420598.835 10 0 61008 23400.00000 0 -15118984.357 15008982.933 -14021050.778 10 0 61008 24300.00000 0 -16444575.013 15855502.005 -11349008.752 10 0 61008 25200.00000 0 -17415621.993 16612744.815 -8456480.563 10 0 61008 26100.00000 0 -18033077.384 17222815.479 -5399720.577 10 0 61008 27000.00000 0 -18310660.086 17631022.063 -2238130.965 10 0 61008 27900.00000 0 -18274056.768 17788324.735 966895.526 10 0 61008 28800.00000 0 -17959634.838 17653559.379 4153168.357 10 0 61008 29700.00000 0 -17412723.329 17195343.115 7258904.117 10 0 61008 30600.00000 0 -16685535.481 16393581.731 10223920.183 10 0 61008 31500.00000 0 -15834821.410 15240515.903 12990794.128 10 0 61008 32400.00000 0 -14919350.165 13741262.481 15505966.941 10 0 61008 33300.00000 0 -13997327.106 11913828.172 17720769.475 10 0 61008 34200.00000 0 -13123854.761 9788594.855 19592353.196 10 0 61008 35100.00000 0 -12348543.101 7407297.454 21084508.445 10 0 61008 36000.00000 0 -11713368.562 4821536.076 22168355.530 10 0 61008 36900.00000 0 -11250870.684 2090883.058 22822896.434 10 0 61008 37800.00000 0 -10982761.049 -719338.006 23035417.352 10 0 61008 38700.00000 0 -10919002.214 -3540510.929 22801734.871 10 0 61008 39600.00000 0 -11057394.980 -6303323.197 22126281.216 10 0 61008 40500.00000 0 -11383691.454 -8940394.126 21022026.643 10 0 61008 41400.00000 0 -11872229.761 -11388827.661 19510239.808 10 0 61008 42300.00000 0 -12487064.705 -13592585.329 17620089.653 10 0 61008 43200.00000 0 -13183548.079 -15504581.838 15388095.216 10 0 61008 44100.00000 0 -13910293.426 -17088416.839 12857432.509 10 0 61008 45000.00000 0 -14611443.701 -18319670.898 10077110.467 10 0 61008 45900.00000 0 -15229147.121 -19186711.480 7101030.654 10 0 61008 46800.00000 0 -15706137.229 -19690974.906 3986947.958 10 0 61008 47700.00000 0 -15988308.111 -19846711.937 795351.891 10 0 61008 48600.00000 0 -16027175.328 -19680207.297 -2411709.929 10 0 61008 49500.00000 0 -15782117.414 -19228505.605 -5571842.992 10 0 61008 50400.00000 0 -15222301.536 -18537697.379 -8623527.511 10 0 61008 51300.00000 0 -14328210.087 -17660837.625 -11507325.735 10 0 61008 52200.00000 0 -13092701.687 -16655585.389 -14167050.328 10 0 61008 53100.00000 0 -11521559.802 -15581664.771 -16550869.836 10 0 61008 54000.00000 0 -9633504.026 -14498255.560 -18612328.633 10 0 61008 54900.00000 0 -7459661.928 -13461424.721 -20311260.568 10 0 61008 55800.00000 0 -5042522.441 -12521708.094 -21614577.777 10 0 61008 56700.00000 0 -2434413.773 -11721945.175 -22496918.939 10 0 61008 57600.00000 0 304431.022 -11095458.764 -22941144.180 10 0 61008 58500.00000 0 3108140.195 -10664656.479 -22938667.081 10 0 61008 59400.00000 0 5907706.682 -10440112.871 -22489617.616 10 0 61008 60300.00000 0 8633624.349 -10420170.366 -21602833.262 10 0 61008 61200.00000 0 11218547.244 -10591075.069 -20295678.941 10 0 61008 62100.00000 0 13599861.208 -10927640.705 -18593699.855 10 0 61008 63000.00000 0 15722061.119 -11394411.585 -16530114.519 10 0 61008 63900.00000 0 17538835.270 -11947274.367 -14145158.460 10 0 61008 64800.00000 0 19014770.941 -12535449.449 -11485291.926 10 0 61008 65700.00000 0 20126611.259 -13103776.877 -8602287.588 10 0 61008 66600.00000 0 20864012.343 -13595199.370 -5552216.614 10 0 61008 67500.00000 0 21229770.937 -13953336.887 -2394353.379 10 0 61008 68400.00000 0 21239514.877 -14125043.558 809979.401 10 0 61008 69300.00000 0 20920871.349 -14062838.761 3998602.233 10 0 61008 70200.00000 0 20312149.657 -13727109.730 7109683.705 10 0 61008 71100.00000 0 19460595.373 -13087992.913 10082935.244 10 0 61008 72000.00000 0 18420290.389 -12126855.032 12860772.770 10 0 61008 72900.00000 0 17249787.813 -10837311.702 15389423.210 10 0 61008 73800.00000 0 16009581.254 -9225740.862 17619955.238 10 0 61008 74700.00000 0 14759514.485 -7311269.336 19509215.209 10 0 61008 75600.00000 0 13556239.455 -5125232.535 21020651.344 10 0 61008 76500.00000 0 12450828.248 -2710129.034 22125011.424 10 0 61008 77400.00000 0 11486637.857 -118112.327 22800901.577 10 0 61008 78300.00000 0 10697516.035 2590919.049 23035196.298 10 0 61008 79200.00000 0 10106422.271 5351555.522 22823292.369 10 0 61008 80100.00000 0 9724520.877 8095343.870 22169201.977 10 0 61008 81000.00000 0 9550783.761 10753387.599 21085483.002 10 0 61008 81900.00000 0 9572119.571 13258974.335 19593007.155 10 0 61008 82800.00000 0 9764024.171 15550122.712 17720569.404 10 0 61008 83700.00000 0 10091725.906 17571944.209 15504344.955 10 0 61008 84600.00000 0 10511778.407 19278722.440 12987202.793 10 0 61008 85500.00000 0 10974034.861 20635623.608 10217887.675 10 0 61009 0.00000 0 11423921.270 21619966.530 7250085.395 10 0 61009 900.00000 0 11804913.542 22221999.221 4141386.811 10 0 61009 1800.00000 0 12061113.201 22445147.598 952174.181 10 0 61009 2700.00000 0 12139813.225 22305726.981 -2255554.036 10 0 61009 3600.00000 0 11993943.914 21832126.507 -5419392.914 10 0 61009 4500.00000 0 11584294.143 21063501.017 -8477752.649 10 0 61009 5400.00000 0 10881412.225 20048025.281 -11371067.073 10 0 61009 6300.00000 0 9867104.034 18840784.415 -14042964.430 10 0 61009 7200.00000 0 8535463.003 17501389.920 -16441376.429 10 0 61009 8100.00000 0 6893386.562 16091422.660 -18519562.868 10 0 61009 9000.00000 0 4960555.413 14671811.422 -20237030.935 10 0 61009 9900.00000 0 2768875.008 13300258.453 -21560330.550 10 0 61009 10800.00000 0 361401.485 12028821.144 -22463709.846 10 0 61009 11700.00000 0 -2209203.764 10901752.216 -22929617.843 10 0 61009 12600.00000 0 -4882626.713 9953689.507 -22949044.609 10 0 61009 13500.00000 0 -7593179.172 9208271.306 -22521692.569 10 0 61009 14400.00000 0 -10272308.118 8677234.970 -21655976.014 10 0 61009 15300.00000 0 -12851231.158 8360035.781 -20368849.353 10 0 61009 16200.00000 0 -15263588.344 8244000.922 -18685467.977 10 0 61009 17100.00000 0 -17447999.926 8305010.640 -16638688.921 10 0 61009 18000.00000 0 -19350423.731 8508676.391 -14268421.603 10 0 61009 18900.00000 0 -20926214.438 8811964.754 -11620841.878 10 0 61009 19800.00000 0 -22141799.685 9165197.166 -8747485.245 10 0 61009 20700.00000 0 -22975904.135 9514339.742 -5704237.474 10 0 61009 21600.00000 0 -23420271.748 9803485.428 -2550242.815 10 0 61009 22500.00000 0 -23479857.666 9977422.798 653248.472 10 0 61009 23400.00000 0 -23172483.371 9984182.461 3844070.440 10 0 61009 24300.00000 0 -22527971.278 9777453.243 6960346.249 10 0 61009 25200.00000 0 -21586796.589 9318766.131 9941684.010 10 0 61009 26100.00000 0 -20398314.218 8579353.941 12730340.629 10 0 61009 27000.00000 0 -19018636.010 7541608.568 15272331.587 10 0 61009 27900.00000 0 -17508247.673 6200074.571 17518465.902 10 0 61009 28800.00000 0 -15929465.204 4561937.293 19425287.166 10 0 61009 29700.00000 0 -14343836.781 2646984.687 20955903.616 10 0 61009 30600.00000 0 -12809597.922 487043.694 22080692.341 10 0 61009 31500.00000 0 -11379285.138 -1875086.419 22777865.138 10 0 61009 32400.00000 0 -10097606.492 -4387160.778 23033885.984 10 0 61009 33300.00000 0 -8999656.737 -6989413.984 22843732.690 10 0 61009 34200.00000 0 -8109550.500 -9616805.511 22210997.896 10 0 61009 35100.00000 0 -7439529.781 -12201494.189 21147827.245 10 0 61009 36000.00000 0 -6989582.629 -14675441.040 19674695.300 10 0 61009 36900.00000 0 -6747588.871 -16973034.002 17820022.505 10 0 61009 37800.00000 0 -6689987.034 -19033626.847 15619639.338 10 0 61009 38700.00000 0 -6782934.980 -20803887.536 13116106.523 10 0 61009 39600.00000 0 -6983916.113 -22239858.570 10357903.085 10 0 61009 40500.00000 0 -7243724.138 -23308643.287 7398496.648 10 0 61009 41400.00000 0 -7508743.112 -23989647.144 4295312.981 10 0 61009 42300.00000 0 -7723426.627 -24275321.244 1108624.205 10 0 61009 43200.00000 0 -7832871.020 -24171376.022 -2099622.982 10 0 61009 44100.00000 0 -7785372.986 -23696455.230 -5267016.056 10 0 61009 45000.00000 0 -7534862.143 -22881283.188 -8331898.205 10 0 61009 45900.00000 0 -7043103.959 -21767320.723 -11234578.000 10 0 61009 46800.00000 0 -6281577.992 -20404986.229 -13918502.523 10 0 61009 47700.00000 0 -5232949.948 -18851516.964 -16331369.909 10 0 61009 48600.00000 0 -3892073.392 -17168561.123 -18426158.527 10 0 61009 49500.00000 0 -2266476.898 -15419602.715 -20162051.837 10 0 61009 50400.00000 0 -376314.452 -13667328.367 -21505240.138 10 0 61009 51300.00000 0 1746220.192 -11971047.500 -22429583.177 10 0 61009 52200.00000 0 4057991.716 -10384274.788 -22917120.546 10 0 61009 53100.00000 0 6506488.645 -8952576.736 -22958419.968 10 0 61009 54000.00000 0 9031790.916 -7711772.635 -22552756.967 10 0 61009 54900.00000 0 11568857.515 -6686564.899 -21708122.822 10 0 61009 55800.00000 0 14050038.684 -5889655.376 -20441061.139 10 0 61009 56700.00000 0 16407707.782 -5321383.429 -18776336.774 10 0 61009 57600.00000 0 18576902.962 -4969899.444 -16746444.096 10 0 61009 58500.00000 0 20497868.512 -4811864.671 -14390964.774 10 0 61009 59400.00000 0 22118390.028 -4813646.099 -11755788.157 10 0 61009 60300.00000 0 23395826.442 -4932954.180 -8892209.988 10 0 61009 61200.00000 0 24298754.710 -5120852.641 -5855927.614 10 0 61009 62100.00000 0 24808159.457 -5324054.094 -2705951.778 10 0 61009 63000.00000 0 24918119.041 -5487403.293 496543.352 10 0 61009 63900.00000 0 24635960.713 -5556442.280 3689409.133 10 0 61009 64800.00000 0 23981879.856 -5479948.522 6810727.020 10 0 61009 65700.00000 0 22988040.634 -5212338.582 9800005.362 10 0 61009 66600.00000 0 21697196.957 -4715835.895 12599345.317 10 0 61009 67500.00000 0 20160892.425 -3962311.332 15154553.808 10 0 61009 68400.00000 0 18437315.094 -2934719.223 17416182.657 10 0 61009 69300.00000 0 16588896.901 -1628068.457 19340474.709 10 0 61009 70200.00000 0 14679757.692 -49887.734 20890199.775 10 0 61009 71100.00000 0 12773099.766 1779835.082 22035365.386 10 0 61009 72000.00000 0 10928660.574 3829237.842 22753789.722 10 0 61009 72900.00000 0 9200328.424 6055670.126 23031526.557 10 0 61009 73800.00000 0 7634019.196 8407236.782 22863134.663 10 0 61009 74700.00000 0 6265901.221 10824736.606 22251786.696 10 0 61009 75600.00000 0 5121041.198 13243917.580 21209215.274 10 0 61009 76500.00000 0 4212526.793 15597956.910 19755496.698 10 0 61009 77400.00000 0 3541102.075 17820064.531 17918675.480 10 0 61009 78300.00000 0 3095330.867 19846103.273 15734235.691 10 0 61009 79200.00000 0 2852281.307 21617117.640 13244427.885 10 0 61009 80100.00000 0 2778703.226 23081666.271 10497463.218 10 0 61009 81000.00000 0 2832649.245 24197860.745 7546589.088 10 0 61009 81900.00000 0 2965471.630 24935025.013 4449063.138 10 0 61009 82800.00000 0 3124110.785 25274905.104 1265044.947 10 0 61009 83700.00000 0 3253578.482 25212377.315 -1943573.301 10 0 61009 84600.00000 0 3299530.212 24755623.998 -5114374.266 10 0 61009 85500.00000 0 3210816.756 23925768.454 -8185636.875 10 0 61010 0.00000 0 2941905.607 22755983.570 -11097546.815 10 0 61010 900.00000 0 2455067.838 21290110.433 -13793372.984 10 0 61010 1800.00000 0 1722236.380 19580846.462 -16220581.903 10 0 61010 2700.00000 0 726454.725 17687577.333 -18331872.516 10 0 61010 3600.00000 0 -537146.750 15673945.700 -20086106.310 10 0 61010 4500.00000 0 -2060889.858 13605258.901 -21449115.476 10 0 61010 5400.00000 0 -3824623.964 11545845.177 -22394372.650 10 0 61010 6300.00000 0 -5796335.654 9556469.833 -22903509.003 10 0 61010 7200.00000 0 -7933267.965 7691920.004 -22966670.618 10 0 61010 8100.00000 0 -10183502.781 5998859.208 -22582706.478 10 0 61010 9000.00000 0 -12487940.436 4514041.140 -21759184.816 10 0 61010 9900.00000 0 -14782593.726 3262956.743 -20512237.970 10 0 61010 10800.00000 0 -17001100.348 2258969.994 -18866239.356 10 0 61010 11700.00000 0 -19077348.662 1502977.017 -16853319.370 10 0 61010 12600.00000 0 -20948106.925 983601.008 -14512730.260 10 0 61010 13500.00000 0 -22555546.119 677912.657 -11890072.902 10 0 61010 14400.00000 0 -23849551.132 552643.725 -9036401.097 10 0 61010 15300.00000 0 -24789723.971 565840.596 -6007221.422 10 0 61010 16200.00000 0 -25346995.886 668886.293 -2861408.645 10 0 61010 17100.00000 0 -25504781.737 808804.038 339941.724 10 0 61010 18000.00000 0 -25259629.375 930743.892 3534700.986 10 0 61010 18900.00000 0 -24621337.939 980546.609 6660911.598 10 0 61010 19800.00000 0 -23612541.342 907275.913 9657984.878 10 0 61010 20700.00000 0 -22267775.421 665612.142 12467868.966 10 0 61010 21600.00000 0 -20632068.647 218006.344 15036164.868 10 0 61010 22500.00000 0 -18759115.842 -463495.788 17313169.693 10 0 61010 23400.00000 0 -16709111.359 -1395836.718 19254827.777 10 0 61010 24300.00000 0 -14546331.854 -2583996.136 20823572.424 10 0 61010 25200.00000 0 -12336568.715 -4020546.439 21989043.155 10 0 61010 26100.00000 0 -10144516.060 -5685733.850 22728665.671 10 0 61010 27000.00000 0 -8031221.688 -7548082.761 23028084.283 10 0 61010 27900.00000 0 -6051705.546 -9565499.490 22881439.083 10 0 61010 28800.00000 0 -4252843.323 -11686831.103 22291482.746 10 0 61010 29700.00000 0 -2671601.870 -13853816.292 21269534.568 10 0 61010 30600.00000 0 -1333698.786 -16003349.044 19835272.010 10 0 61010 31500.00000 0 -252741.233 -18069962.670 18016362.813 10 0 61010 32400.00000 0 570120.542 -19988432.343 15847943.554 10 0 61010 33300.00000 0 1146010.704 -21696388.835 13371953.281 10 0 61010 34200.00000 0 1497623.876 -23136835.044 10636333.722 10 0 61010 35100.00000 0 1658029.094 -24260460.314 7694110.251 10 0 61010 36000.00000 0 1669031.760 -25027655.351 4602370.382 10 0 61010 36900.00000 0 1579162.508 -25410142.417 1421158.979 10 0 61010 37800.00000 0 1441378.004 -25392151.275 -1787688.637 10 0 61010 38700.00000 0 1310571.340 -24971090.116 -4961752.815 10 0 61010 39600.00000 0 1240998.142 -24157681.877 -8039250.856 10 0 61010 40500.00000 0 1283728.574 -22975558.977 -10960248.820 10 0 61010 41400.00000 0 1484234.587 -21460332.521 -13667839.196 10 0 61010 42300.00000 0 1880216.282 -19658174.460 -16109260.265 10 0 61010 43200.00000 0 2499761.166 -17623972.027 -18236934.306 10 0 61010 44100.00000 0 3359915.906 -15419132.007 -20009403.417 10 0 61010 45000.00000 0 4465732.603 -13109127.315 -21392143.993 10 0 61010 45900.00000 0 5809831.266 -10760889.203 -22358243.521 10 0 61010 46800.00000 0 7372498.115 -8440154.787 -22888926.302 10 0 61010 47700.00000 0 9122316.489 -6208881.286 -22973917.891 10 0 61010 48600.00000 0 11017304.430 -4122835.227 -22611641.420 10 0 61010 49500.00000 0 13006511.528 -2229457.147 -21809242.340 10 0 61010 50400.00000 0 15032008.162 -566090.469 -20582441.596 10 0 61010 51300.00000 0 17031183.658 841352.488 -18955220.648 10 0 61010 52200.00000 0 18939256.960 1979233.014 -16959345.008 10 0 61010 53100.00000 0 20691894.433 2846503.567 -14633736.186 10 0 61010 54000.00000 0 22227825.002 3454489.172 -12023704.838 10 0 61010 54900.00000 0 23491343.090 3826144.076 -9180060.631 10 0 61010 55800.00000 0 24434594.587 3994817.146 -6158116.765 10 0 61010 56700.00000 0 25019550.415 4002580.131 -3016609.056 10 0 61010 57600.00000 0 25219585.529 3898191.117 183448.898 10 0 61010 58500.00000 0 25020597.858 3734780.665 3379951.768 10 0 61010 59400.00000 0 24421621.201 3567359.439 6510906.485 10 0 61010 60300.00000 0 23434907.260 3450253.317 9515630.730 10 0 61010 61200.00000 0 22085474.250 3434574.612 12335922.828 10 0 61010 62100.00000 0 20410141.675 3565836.131 14917180.817 10 0 61010 63000.00000 0 18456092.043 3881808.464 17209449.709 10 0 61010 63900.00000 0 16279019.689 4410710.444 19168377.587 10 0 61010 64800.00000 0 13940943.646 5169808.647 20756063.132 10 0 61010 65700.00000 0 11507774.938 6164484.674 21941779.338 10 0 61010 66600.00000 0 9046738.544 7387809.561 22702560.519 10 0 61010 67500.00000 0 6623755.833 8820643.748 23023642.201 10 0 61010 68400.00000 0 4300894.707 10432259.471 22898746.048 10 0 61010 69300.00000 0 2133991.806 12181460.923 22330204.590 10 0 61010 70200.00000 0 170544.033 14018157.155 21328923.197 10 0 61010 71100.00000 0 -1552044.308 15885323.920 19914179.477 10 0 61010 72000.00000 0 -3007786.820 17721274.461 18113263.009 10 0 61010 72900.00000 0 -4182958.349 19462146.141 15960961.157 10 0 61010 73800.00000 0 -5076421.492 21044500.447 13498899.461 10 0 61010 74700.00000 0 -5699422.793 22407928.539 10774747.988 10 0 61010 75600.00000 0 -6074867.077 23497553.674 7841307.681 10 0 61010 76500.00000 0 -6236100.270 24266325.449 4755493.374 10 0 61010 77400.00000 0 -6225251.814 24677008.868 1577232.535 10 0 61010 78300.00000 0 -6091206.627 24703783.534 -1631699.126 10 0 61010 79200.00000 0 -5887292.582 24333384.280 -4808882.425 10 0 61010 80100.00000 0 -5668781.901 23565733.687 -7892475.790 10 0 61010 81000.00000 0 -5490313.164 22414038.280 -10822428.073 10 0 61010 81900.00000 0 -5403344.336 20904342.996 -13541658.384 10 0 61010 82800.00000 0 -5453746.143 19074561.559 -15997178.811 10 0 61010 83700.00000 0 -5679639.254 16973022.773 -18141137.037 10 0 61010 84600.00000 0 -6109568.422 14656593.391 -19931757.594 10 0 61010 85500.00000 0 -6761092.288 12188456.266 -21334162.646 10 0 61011 0.00000 0 -7639849.664 9635637.296 -22321055.751 10 0 61011 900.00000 0 -8739143.323 7066383.591 -22873255.521 10 0 61011 1800.00000 0 -10040058.442 4547506.221 -22980067.570 10 0 61011 2700.00000 0 -11512112.794 2141794.207 -22639489.507 10 0 61011 3600.00000 0 -13114410.517 -94389.027 -21858243.945 10 0 61011 4500.00000 0 -14797251.406 -2113228.135 -20651639.958 10 0 61011 5400.00000 0 -16504127.946 -3877209.297 -19043266.147 10 0 61011 6300.00000 0 -18174025.960 -5360432.660 -17064521.835 10 0 61011 7200.00000 0 -19743931.990 -6549430.526 -14753996.118 10 0 61011 8100.00000 0 -21151441.864 -7443459.065 -12156707.460 10 0 61011 9000.00000 0 -22337360.751 -8054253.508 -9323219.187 10 0 61011 9900.00000 0 -23248185.435 -8405259.435 -6308648.726 10 0 61011 10800.00000 0 -23838364.718 -8530374.746 -3171590.405 10 0 61011 11700.00000 0 -24072243.294 -8472257.398 27026.742 10 0 61011 12600.00000 0 -23925607.938 -8280272.041 3225123.511 10 0 61011 13500.00000 0 -23386771.726 -8008163.609 6360674.129 10 0 61011 14400.00000 0 -22457151.436 -7711557.039 9372905.518 10 0 61011 15300.00000 0 -21151314.586 -7445389.198 12203469.048 10 0 61011 16200.00000 0 -19496494.671 -7261381.523 14797562.552 10 0 61011 17100.00000 0 -17531595.162 -7205659.757 17104981.529 10 0 61011 18000.00000 0 -15305723.911 -7316620.681 19081080.117 10 0 61011 18900.00000 0 -12876318.739 -7623135.135 20687624.303 10 0 61011 19800.00000 0 -10306941.545 -8143162.487 21893522.064 10 0 61011 20700.00000 0 -7664831.632 -8882834.533 22675417.370 10 0 61011 21600.00000 0 -5018318.537 -9836047.389 23018137.537 10 0 61011 22500.00000 0 -2434200.145 -10984579.049 22914985.948 10 0 61011 23400.00000 0 24806.715 -12298728.623 22367874.733 10 0 61011 24300.00000 0 2302439.095 -13738451.879 21387294.757 10 0 61011 25200.00000 0 4350987.113 -15254947.204 19992122.913 10 0 61011 26100.00000 0 6133033.500 -16792627.403 18209269.503 10 0 61011 27000.00000 0 7622762.050 -18291396.542 16073171.325 10 0 61011 27900.00000 0 8806780.995 -19689138.008 13625138.840 10 0 61011 28800.00000 0 9684427.210 -20924310.652 10912568.644 10 0 61011 29700.00000 0 10267538.520 -21938544.756 7988035.223 10 0 61011 30600.00000 0 10579703.568 -22679128.875 4908278.490 10 0 61011 31500.00000 0 10655020.626 -23101282.561 1733106.117 10 0 61011 32400.00000 0 10536417.590 -23170118.306 -1475768.337 10 0 61011 33300.00000 0 10273604.184 -22862208.710 -4655928.775 10 0 61011 34200.00000 0 9920743.332 -22166691.195 -7745477.418 10 0 61011 35100.00000 0 9533940.883 -21085861.951 -10684248.566 10 0 61011 36000.00000 0 9168660.961 -19635232.392 -13414990.581 10 0 61011 36900.00000 0 8877177.574 -17843044.270 -15884491.889 10 0 61011 37800.00000 0 8706171.762 -15749262.653 -18044627.966 10 0 61011 38700.00000 0 8694577.362 -13404088.217 -19853307.954 10 0 61011 39600.00000 0 8871767.874 -10866050.847 -21275301.668 10 0 61011 40500.00000 0 9256162.228 -8199764.243 -22282930.405 10 0 61011 41400.00000 0 9854309.277 -5473435.539 -22856607.871 10 0 61011 42300.00000 0 10660490.368 -2756234.208 -22985220.679 10 0 61011 43200.00000 0 11656857.072 -115630.234 -22666341.237 10 0 61011 44100.00000 0 12814098.483 2385187.406 -21906269.256 10 0 61011 45000.00000 0 14092609.803 4689704.532 -20719901.522 10 0 61011 45900.00000 0 15444112.803 6750188.584 -19130433.034 10 0 61011 46800.00000 0 16813659.532 8529421.591 -17168895.860 10 0 61011 47700.00000 0 18141934.514 10001988.284 -14873545.302 10 0 61011 48600.00000 0 19367758.133 11155067.275 -12289105.920 10 0 61011 49500.00000 0 20430685.475 11988694.255 -9465892.653 10 0 61011 50400.00000 0 21273591.029 12515488.412 -6458824.787 10 0 61011 51300.00000 0 21845130.356 12759855.847 -3326352.500 10 0 61011 52200.00000 0 22101975.274 12756705.764 -129317.372 10 0 61011 53100.00000 0 22010728.713 12549735.420 3070230.556 10 0 61011 54000.00000 0 21549439.168 12189357.823 6210235.907 10 0 61011 54900.00000 0 20708651.553 11730360.785 9229837.893 10 0 61011 55800.00000 0 19491950.789 11229396.841 12070543.862 10 0 61011 56700.00000 0 17915975.740 10742410.187 14677354.171 10 0 61011 57600.00000 0 16009903.058 10322109.032 16999817.309 10 0 61011 58500.00000 0 13814422.457 10015589.381 18992995.677 10 0 61011 59400.00000 0 11380245.770 9862209.655 20618324.474 10 0 61011 60300.00000 0 8766211.099 9891804.837 21844348.221 10 0 61011 61200.00000 0 6037059.874 10123314.609 22647321.732 10 0 61011 62100.00000 0 3260977.702 10563882.689 23011664.904 10 0 61011 63000.00000 0 506999.434 11208465.210 22930263.189 10 0 61011 63900.00000 0 -2157615.632 12039964.948 22404608.211 10 0 61011 64800.00000 0 -4669931.352 13029886.646 21444775.748 10 0 61011 65700.00000 0 -6973701.040 14139487.216 20069240.925 10 0 61011 66600.00000 0 -9021455.609 15321374.061 18304533.285 10 0 61011 67500.00000 0 -10776227.807 16521486.098 16184737.206 10 0 61011 68400.00000 0 -12212841.486 17681375.891 13750845.901 10 0 61011 69300.00000 0 -13318712.458 18740698.278 11049980.121 10 0 61011 70200.00000 0 -14094127.556 19639801.777 8134485.369 10 0 61011 71100.00000 0 -14551990.082 20322314.052 5060924.032 10 0 61011 72000.00000 0 -14717042.116 20737612.351 1888981.338 10 0 61011 72900.00000 0 -14624596.237 20843073.985 -1319693.960 10 0 61011 73800.00000 0 -14318830.064 20606010.693 -4502691.503 10 0 61011 74700.00000 0 -13850715.841 20005203.653 -7598059.910 10 0 61011 75600.00000 0 -13275673.006 19031972.553 -10545521.461 10 0 61011 76500.00000 0 -12651043.804 17690731.736 -13287656.175 10 0 61011 77400.00000 0 -12033499.738 15999008.208 -15771031.040 10 0 61011 78300.00000 0 -11476489.757 13986919.205 -17947251.328 10 0 61011 79200.00000 0 -11027839.347 11696129.997 -19773912.523 10 0 61011 80100.00000 0 -10727603.219 9178334.856 -21215433.544 10 0 61011 81000.00000 0 -10606263.377 6493324.289 -22243754.516 10 0 61011 81900.00000 0 -10683349.442 3706719.175 -22838885.257 10 0 61011 82800.00000 0 -10966539.994 887466.506 -22989293.782 10 0 61011 83700.00000 0 -11451283.065 -1894798.683 -22692127.463 10 0 61011 84600.00000 0 -12120951.678 -4572415.163 -21953262.903 10 0 61011 85500.00000 0 -12947527.593 -7082270.252 -20787184.019 99